Location: Cisewo
(53.3833°N, 14.9000°E)
Time: 14:06:16
(UTC+00:00)

COSMOS 2455 - Pass Details

Date: 18 April 2021
Orbit: 902 x 907 km, 67.1° (Epoch: 16 May)

Event Time Altitude Azimuth Distance (km) Brightness Sun altitude
Exits shadow 23:01:17 14° 256° (WSW) 2,316 4.8 -25.4°
Maximum altitude 23:06:11 43° 324° (NW) 1,252 3.9 -25.4°
Drops below altitude 10° 23:11:56 10° 36° (NE) 2,602 6.0 -25.4°
Sets 23:14:36 0° 43° (NE) 3,546 6.7 -25.4°
